Regional Weather Roundup
Issued by NWS Midland/Odessa, TX

Skip options and go directly to product.
Home | Oldest Version | Previous Version | Current Version | All | Text Only | Save Text | Print | Product List | Glossary On

Skip product version selection by date and time.   
892
ASUS44 KMAF 281710
RWRMAF
MIDLAND AREA WEATHER ROUNDUP
NATIONAL WEATHER SERVICE MIDLAND TX
1200 PM CDT FRI AUG 28 2015

...IN SOUTHWEST TEXAS AND SOUTHEAST NEW MEXICO...

CITY           SKY/WX    TMP DP  RH WIND       PRES   REMARKS
ALPINE         SUNNY     89  48  25 SW15      30.21S
ANDREWS        FAIR      90  56  31 SW14      30.07R
ARTESIA        PTSUNNY   86  57  37 NW8       30.09F
BIG SPRING     MOSUNNY   85  52  32 SE16      30.07S
CARLSBAD       MOSUNNY   92  55  28 N8        30.06S
DRYDEN           N/A     91  57  31 S12       30.03F
FORT STOCKTON  SUNNY     93  54  26 SW6       30.05S
GUAD PASS      MOSUNNY   87  50  27 SW15      30.23S
HOBBS          SUNNY     88  54  31 S12G17    30.09S
MARFA          SUNNY     82  52  34 SW7       30.21S
MIDLAND AIRPK  SUNNY     90  52  27 S15       30.06S
MIDLAND INTL   SUNNY     90  54  29 S17       30.05S
ODESSA         SUNNY     89  54  30 S16       30.07R
PECOS          SUNNY     91  53  27 N3        30.02S
PRESIDIO       NOT AVBL
SEMINOLE       SUNNY     89  54  29 SW10G16   30.08S
SNYDER         MOSUNNY   88  56  33 S10G16    30.05S
WINK           SUNNY     93  53  25 S7        30.02S
$$
...OTHER STATIONS IN TEXAS...

CITY           SKY/WX    TMP DP  RH WIND       PRES   REMARKS
ABILENE          N/A     89  58  34 S13       30.04R
AMARILLO       MOSUNNY   80  58  46 VRB5      30.09R
AUSTIN         MOSUNNY   88  59  37 SW8       30.02S
BROWNSVILLE    MOSUNNY   89  69  51 NE3       29.99F
CORPUS CHRISTI MOSUNNY   90  61  37 SE13      30.01S
DALLAS FTW     SUNNY     88  61  40 S7G17     30.01S
DEL RIO        SUNNY     89  57  33 SE7       30.00F
EL PASO        MOSUNNY   86  55  34 CALM      30.11R
HOUSTON INT    MOSUNNY   86  67  52 CALM      30.03S
LUBBOCK        MOSUNNY   89  57  33 S17       30.06S
SAN ANGELO     SUNNY     89  56  32 S10       30.04S
SAN ANTONIO    MOSUNNY   89  56  32 S9        30.04S
WACO           SUNNY     88  63  43 VRB6      30.02S
WICHITA FALLS  NOT AVBL
$$
...OTHER LOCATIONS IN NEW MEXICO...

CITY           SKY/WX    TMP DP  RH WIND       PRES   REMARKS
ALAMAGORDO     SUNNY     86  52  30 CALM      30.13F
ALBUQUERQUE    PTSUNNY   78  53  41 NW6       30.24F
CANNON AFB     SUNNY     83  58  42 NE12      30.12S
CLOVIS         SUNNY     84  57  39 NE9       30.13S
HOLLOMAN AFB   PTSUNNY   86  53  31 VRB2      30.11S
ROSWELL        MOSUNNY   85  57  38 N7        30.09S
RUIDOSO        SUNNY     75  50  41 MISG      30.34S
SANTA FE       MOSUNNY   78  48  34 NE10      30.29S
TRUTH OR CONSE SUNNY     85  54  34 NE9       30.18F
TUCUMCARI      SUNNY     85  56  37 NE8       30.13R
$$

USA.gov is the U.S. government's official web portal to all federal, state and local government web resources and services.